Regional Weather Roundup
Issued by NWS

Home | Current Version | Previous Version | Text Only | Print | Product List | Glossary Off
Versions: 1 2 3 4 5 6 7 8 9 10 11 12 13 14 15 16 17 18 19 20 21 22 23 24 25 26 27 28 29 30 31 32 33 34 35 36 37 38 39 40 41 42 43 44 45 46 47 48 49 50

000
ASUS43 KBIS 230710
RWRND

NORTH DAKOTA REGIONAL WEATHER ROUNDUP
NATIONAL WEATHER SERVICE BISMARCK ND
200 AM CDT SAT MAY 23 2015

NOTE: "FAIR" INDICATES FEW OR NO CLOUDS BELOW 12,000 FEET WITH NO
SIGNIFICANT WEATHER AND/OR OBSTRUCTIONS TO VISIBILITY.


NDZ001>003-009>011-017-230800-
NORTHWEST NORTH DAKOTA

CITY           SKY/WX    TMP DP  RH WIND       PRES   REMARKS
WILLISTON      PTCLDY    57  38  48 S3        30.09R
MINOT          MOCLDY    60  40  47 SW6       30.10R
MINOT AFB      MOCLDY    55  42  63 S5        30.09R
$$

NDZ018>021-031>035-040>046-230800-
SOUTHWEST NORTH DAKOTA

CITY           SKY/WX    TMP DP  RH WIND       PRES   REMARKS
BISMARCK       CLEAR     50  41  71 E3        30.13R
DICKINSON      PTCLDY    43  35  73 S8        30.09R
GARRISON         N/A     53  40  61 CALM      30.12R
HETTINGER ARPT PTCLDY    44  38  79 SE7       30.10S
$$

NDZ004>008-012>016-024-026-027-054-230800-
NORTHEAST NORTH DAKOTA

CITY           SKY/WX    TMP DP  RH WIND       PRES   REMARKS
GRAND FORKS    CLEAR     54  42  64 SE6       30.12S
GRND FRKS AFB  CLEAR     49  42  76 SW5       30.13R
DEVILS LAKE    CLEAR     54  43  66 CALM      30.12S
$$

NDZ022-023-025-028>030-036>039-047>053-230800-
SOUTHEAST NORTH DAKOTA

CITY           SKY/WX    TMP DP  RH WIND       PRES   REMARKS
FARGO          CLEAR     55  38  52 S10       30.14R
JAMESTOWN      MOCLDY    54  41  61 S7        30.12S
$$




USA.gov is the U.S. government's official web portal to all federal, state and local government web resources and services.